QPF
0.05 0.05 0.06 0.08 0.09 0.10 0.09 0.07 0.07 0.07 0.05 0.04 0.03 0.02 0.02 0.03 0.02 0.02 0.01 0.01 0.01 0.01 0.01 0.00 0.00 0.00 0.00 0.00 0.00 0.00 0.00 0.00 0.00 0.00 0.00 0.00 0.00 0.00 0.00 0.00 0.00 0.00 0.00
0.04 0.06 0.07 0.09 0.11 0.11 0.10 0.09 0.07 0.07 0.05 0.05 0.04 0.03 0.02 0.02 0.03 0.02 0.02 0.01 0.01 0.02 0.01 0.01 0.01 0.01 0.01 0.01 0.01 0.01 0.00 0.01 0.00 0.00 0.00 0.00 0.00 0.00 0.00 0.00 0.00 0.00 0.00
0.04 0.06 0.07 0.09 0.09 0.08 0.08 0.08 0.07 0.05 0.05 0.04 0.04 0.03 0.03 0.02 0.02 0.02 0.03 0.03 0.02 0.02 0.02 0.01 0.01 0.01 0.01 0.01 0.01 0.01 0.00 0.00 0.00 0.00 0.00 0.00 0.00 0.00 0.00 0.00 0.00 0.00 0.00
0.03 0.05 0.07 0.08 0.08 0.07 0.06 0.06 0.04 0.04 0.04 0.03 0.03 0.03 0.02 0.03 0.03 0.03 0.03 0.03 0.03 0.03 0.03 0.03 0.03 0.02 0.02 0.02 0.02 0.01 0.01 0.01 0.01 0.00 0.00 0.01 0.01 0.01 0.01 0.01 0.01 0.00 0.00
0.03 0.06 0.07 0.08 0.07 0.06 0.04 0.05 0.04 0.04 0.03 0.03 0.03 0.03 0.03 0.03 0.03 0.04 0.03 0.02 0.02 0.03 0.03 0.03 0.03 0.02 0.02 0.02 0.01 0.02 0.02 0.01 0.02 0.02 0.02 0.02 0.02 0.02 0.02 0.01 0.01 0.00 0.00
0.03 0.06 0.07 0.06 0.06 0.05 0.04 0.03 0.03 0.03 0.04 0.05 0.04 0.04 0.04 0.03 0.03 0.03 0.03 0.03 0.03 0.04 0.04 0.04 0.03 0.03 0.02 0.01 0.01 0.01 0.01 0.02 0.03 0.03 0.03 0.02 0.02 0.03 0.03 0.02 0.01 0.01 0.01
0.02 0.03 0.04 0.03 0.03 0.03 0.03 0.03 0.02 0.03 0.04 0.04 0.04 0.04 0.04 0.03 0.03 0.02 0.03 0.03 0.04 0.04 0.05 0.05 0.05 0.03 0.02 0.02 0.01 0.01 0.00 0.00 0.01 0.02 0.03 0.03 0.03 0.03 0.04 0.03 0.03 0.02 0.01
0.03 0.04 0.04 0.03 0.03 0.03 0.03 0.03 0.03 0.04 0.05 0.05 0.04 0.04 0.03 0.04 0.04 0.04 0.04 0.05 0.05 0.06 0.06 0.06 0.07 0.05 0.04 0.03 0.02 0.02 0.02 0.02 0.01 0.01 0.01 0.02 0.02 0.03 0.03 0.03 0.03 0.02 0.01
0.02 0.02 0.03 0.03 0.03 0.03 0.03 0.03 0.04 0.04 0.04 0.05 0.05 0.04 0.04 0.04 0.05 0.06 0.07 0.08 0.08 0.07 0.06 0.06 0.06 0.06 0.05 0.03 0.02 0.03 0.03 0.03 0.02 0.02 0.01 0.01 0.01 0.02 0.02 0.02 0.02 0.02 0.02
0.03 0.02 0.03 0.03 0.03 0.03 0.04 0.04 0.05 0.05 0.05 0.05 0.04 0.04 0.04 0.04 0.06 0.05 0.06 0.06 0.06 0.05 0.04 0.04 0.04 0.05 0.05 0.05 0.04 0.04 0.04 0.05 0.04 0.03 0.02 0.02 0.01 0.02 0.02 0.02 0.03 0.03 0.02
0.03 0.04 0.04 0.04 0.04 0.06 0.06 0.05 0.04 0.04 0.05 0.06 0.05 0.05 0.05 0.05 0.06 0.05 0.05 0.04 0.04 0.05 0.05 0.06 0.07 0.09 0.07 0.07 0.07 0.06 0.07 0.06 0.05 0.04 0.03 0.03 0.02 0.02 0.02 0.02 0.02 0.03 0.03
0.04 0.05 0.06 0.07 0.09 0.10 0.10 0.07 0.06 0.05 0.06 0.07 0.08 0.07 0.06 0.06 0.06 0.06 0.06 0.06 0.07 0.08 0.10 0.10 0.11 0.12 0.10 0.10 0.09 0.08 0.08 0.06 0.05 0.05 0.04 0.04 0.04 0.03 0.03 0.02 0.02 0.02 0.02
0.04 0.05 0.05 0.05 0.07 0.09 0.09 0.08 0.06 0.05 0.05 0.05 0.06 0.07 0.07 0.06 0.07 0.08 0.08 0.10 0.12 0.13 0.14 0.15 0.13 0.12 0.09 0.07 0.07 0.06 0.05 0.04 0.04 0.04 0.04 0.04 0.03 0.03 0.02 0.02 0.02 0.02 0.02
0.03 0.03 0.03 0.03 0.03 0.03 0.03 0.04 0.04 0.04 0.04 0.04 0.05 0.05 0.05 0.05 0.05 0.06 0.08 0.09 0.10 0.09 0.09 0.10 0.10 0.09 0.08 0.07 0.07 0.06 0.05 0.05 0.06 0.06 0.06 0.06 0.05 0.05 0.04 0.04 0.04 0.04 0.04
0.02 0.02 0.03 0.03 0.03 0.03 0.03 0.02 0.02 0.02 0.02 0.02 0.02 0.02 0.03 0.04 0.05 0.05 0.05 0.06 0.07 0.08 0.07 0.07 0.07 0.07 0.07 0.06 0.06 0.06 0.05 0.05 0.04 0.04 0.04 0.04 0.05 0.05 0.05 0.04 0.05 0.05 0.05
0.01 0.01 0.02 0.02 0.02 0.02 0.01 0.01 0.01 0.01 0.02 0.02 0.02 0.02 0.02 0.03 0.03 0.03 0.04 0.04 0.05 0.04 0.03 0.04 0.04 0.04 0.04 0.04 0.03 0.03 0.02 0.02 0.02 0.03 0.03 0.03 0.03 0.03 0.03 0.03 0.03 0.04 0.04
0.01 0.01 0.01 0.00 0.01 0.01 0.01 0.01 0.01 0.01 0.01 0.01 0.01 0.01 0.01 0.02 0.03 0.05 0.05 0.05 0.05 0.04 0.02 0.02 0.02 0.02 0.02 0.02 0.02 0.02 0.02 0.02 0.03 0.03 0.04 0.03 0.03 0.03 0.03 0.03 0.03 0.04 0.03
0.01 0.01 0.01 0.00 0.01 0.01 0.01 0.01 0.01 0.01 0.00 0.00 0.01 0.01 0.02 0.02 0.02 0.02 0.03 0.03 0.02 0.02 0.01 0.01 0.01 0.02 0.02 0.02 0.02 0.02 0.02 0.02 0.02 0.02 0.02 0.02 0.02 0.02 0.02 0.03 0.03 0.04 0.05
0.01 0.02 0.01 0.01 0.01 0.01 0.01 0.01 0.01 0.01 0.01 0.01 0.01 0.02 0.02 0.01 0.01 0.01 0.01 0.00 0.00 0.00 0.00 0.01 0.01 0.01 0.01 0.01 0.02 0.02 0.02 0.02 0.02 0.02 0.02 0.02 0.02 0.03 0.03 0.03 0.04 0.04 0.04
0.00 0.01 0.01 0.01 0.01 0.01 0.01 0.01 0.01 0.01 0.01 0.00 0.01 0.01 0.00 0.00 0.00 0.00 0.00 0.00 0.00 0.00 0.00 0.01 0.01 0.01 0.01 0.02 0.02 0.02 0.03 0.02 0.03 0.03 0.03 0.03 0.04 0.05 0.04 0.04 0.05 0.05 0.05
0.00 0.00 0.00 0.00 0.00 0.00 0.00 0.00 0.00 0.00 0.00 0.00 0.00 0.00 0.00 0.00 0.00 0.00 0.00 0.00 0.00 0.00 0.01 0.01 0.01 0.01 0.02 0.02 0.02 0.03 0.03 0.03 0.03 0.03 0.04 0.04 0.04 0.05 0.04 0.04 0.05 0.05 0.04
0.00 0.00 0.00 0.00 0.00 0.00 0.00 0.00 0.00 0.00 0.00 0.00 0.00 0.00 0.00 0.00 0.00 0.00 0.00 0.00 0.00 0.00 0.00 0.00 0.01 0.01 0.02 0.02 0.03 0.03 0.03 0.03 0.03 0.04 0.04 0.03 0.03 0.04 0.04 0.04 0.04 0.04 0.05
0.00 0.00 0.00 0.00 0.00 0.00 0.00 0.00 0.00 0.00 0.00 0.00 0.00 0.00 0.00 0.00 0.00 0.00 0.00 0.00 0.00 0.00 0.00 0.01 0.01 0.01 0.02 0.03 0.03 0.03 0.03 0.03 0.03 0.04 0.04 0.04 0.04 0.05 0.05 0.05 0.04 0.04 0.04
0.00 0.00 0.00 0.00 0.00 0.00 0.00 0.00 0.00 0.00 0.00 0.00 0.00 0.00 0.00 0.01 0.00 0.00 0.00 0.00 0.00 0.01 0.01 0.01 0.01 0.02 0.01 0.02 0.02 0.02 0.02 0.02 0.02 0.02 0.03 0.03 0.03 0.03 0.03 0.04 0.03 0.03 0.04
0.00 0.00 0.00 0.01 0.00 0.00 0.00 0.00 0.00 0.00 0.00 0.00 0.00 0.00 0.00 0.00 0.00 0.00 0.01 0.01 0.01 0.01 0.01 0.01 0.01 0.01 0.02 0.02 0.02 0.02 0.02 0.02 0.01 0.02 0.02 0.02 0.02 0.02 0.03 0.03 0.03 0.04 0.04
0.00 0.00 0.00 0.00 0.00 0.00 0.00 0.00 0.00 0.00 0.01 0.01 0.01 0.01 0.01 0.01 0.01 0.01 0.01 0.01 0.01 0.01 0.01 0.01 0.01 0.02 0.02 0.02 0.01 0.01 0.02 0.02 0.02 0.02 0.02 0.01 0.02 0.03 0.03 0.03 0.04 0.04 0.04
MSLP
1010.56 1011.20 1011.84 1012.46 1013.00 1013.46 1013.84 1014.15 1014.42 1014.70 1015.00 1015.34 1015.74 1016.18 1016.63 1017.08 1017.50 1017.86 1018.17 1018.42 1018.62 1018.80 1018.96 1019.12 1019.29 1019.46 1019.63 1019.79 1019.92 1020.02 1020.08 1020.11 1020.09 1020.05 1019.98 1019.90 1019.82 1019.75 1019.68 1019.63 1019.60 1019.57 1019.55
1010.36 1010.94 1011.53 1012.11 1012.63 1013.08 1013.47 1013.79 1014.09 1014.39 1014.70 1015.05 1015.44 1015.86 1016.30 1016.73 1017.13 1017.49 1017.81 1018.07 1018.30 1018.51 1018.70 1018.88 1019.07 1019.26 1019.43 1019.60 1019.73 1019.83 1019.90 1019.92 1019.91 1019.86 1019.80 1019.71 1019.61 1019.51 1019.40 1019.30 1019.19 1019.10 1019.01
1010.22 1010.75 1011.30 1011.83 1012.31 1012.75 1013.13 1013.47 1013.78 1014.09 1014.42 1014.77 1015.15 1015.56 1015.97 1016.38 1016.76 1017.11 1017.42 1017.70 1017.94 1018.16 1018.38 1018.59 1018.79 1018.98 1019.17 1019.33 1019.46 1019.56 1019.62 1019.64 1019.64 1019.60 1019.55 1019.47 1019.37 1019.26 1019.14 1019.00 1018.84 1018.68 1018.52
1010.13 1010.62 1011.12 1011.60 1012.05 1012.46 1012.82 1013.16 1013.48 1013.80 1014.14 1014.49 1014.86 1015.25 1015.64 1016.02 1016.38 1016.70 1017.00 1017.28 1017.53 1017.76 1017.99 1018.21 1018.42 1018.61 1018.79 1018.94 1019.06 1019.15 1019.20 1019.23 1019.23 1019.22 1019.19 1019.14 1019.07 1018.98 1018.86 1018.71 1018.53 1018.32 1018.10
1010.01 1010.49 1010.95 1011.40 1011.81 1012.18 1012.53 1012.85 1013.17 1013.49 1013.82 1014.17 1014.53 1014.90 1015.26 1015.61 1015.94 1016.25 1016.53 1016.79 1017.04 1017.28 1017.50 1017.72 1017.93 1018.11 1018.27 1018.40 1018.50 1018.57 1018.62 1018.65 1018.67 1018.68 1018.69 1018.68 1018.66 1018.62 1018.54 1018.41 1018.23 1018.00 1017.73
1009.83 1010.30 1010.75 1011.16 1011.54 1011.88 1012.20 1012.50 1012.81 1013.12 1013.44 1013.77 1014.12 1014.46 1014.79 1015.11 1015.42 1015.70 1015.96 1016.21 1016.45 1016.68 1016.90 1017.11 1017.30 1017.47 1017.61 1017.72 1017.80 1017.85 1017.88 1017.91 1017.95 1017.99 1018.04 1018.10 1018.14 1018.16 1018.14 1018.06 1017.90 1017.68 1017.39
1009.54 1010.02 1010.47 1010.86 1011.22 1011.53 1011.82 1012.10 1012.38 1012.67 1012.97 1013.28 1013.60 1013.91 1014.22 1014.51 1014.78 1015.04 1015.28 1015.52 1015.74 1015.97 1016.18 1016.38 1016.57 1016.72 1016.84 1016.93 1016.98 1017.02 1017.05 1017.08 1017.13 1017.21 1017.30 1017.42 1017.53 1017.62 1017.66 1017.64 1017.53 1017.33 1017.04
1009.14 1009.65 1010.10 1010.49 1010.83 1011.12 1011.38 1011.63 1011.88 1012.14 1012.42 1012.70 1012.99 1013.27 1013.55 1013.81 1014.06 1014.30 1014.52 1014.74 1014.97 1015.18 1015.39 1015.59 1015.77 1015.91 1016.02 1016.10 1016.14 1016.17 1016.20 1016.24 1016.31 1016.41 1016.54 1016.70 1016.87 1017.02 1017.12 1017.16 1017.10 1016.94 1016.67
1008.70 1009.22 1009.69 1010.08 1010.41 1010.69 1010.93 1011.15 1011.37 1011.60 1011.84 1012.09 1012.34 1012.60 1012.85 1013.08 1013.31 1013.53 1013.75 1013.96 1014.18 1014.40 1014.61 1014.81 1014.99 1015.14 1015.26 1015.33 1015.38 1015.42 1015.45 1015.50 1015.58 1015.69 1015.85 1016.03 1016.23 1016.42 1016.56 1016.64 1016.63 1016.50 1016.27
1008.30 1008.84 1009.31 1009.71 1010.03 1010.30 1010.52 1010.72 1010.91 1011.11 1011.31 1011.53 1011.76 1011.98 1012.21 1012.42 1012.63 1012.84 1013.05 1013.26 1013.48 1013.70 1013.92 1014.13 1014.32 1014.49 1014.62 1014.71 1014.78 1014.83 1014.87 1014.93 1015.01 1015.13 1015.29 1015.47 1015.67 1015.86 1016.02 1016.11 1016.12 1016.02 1015.82
1008.07 1008.61 1009.07 1009.47 1009.78 1010.04 1010.24 1010.42 1010.59 1010.76 1010.94 1011.13 1011.32 1011.53 1011.73 1011.93 1012.13 1012.33 1012.53 1012.74 1012.95 1013.18 1013.40 1013.62 1013.82 1014.00 1014.15 1014.27 1014.36 1014.43 1014.49 1014.55 1014.63 1014.74 1014.87 1015.03 1015.20 1015.36 1015.50 1015.58 1015.58 1015.50 1015.31
1008.09 1008.59 1009.04 1009.42 1009.72 1009.96 1010.15 1010.31 1010.46 1010.61 1010.76 1010.93 1011.11 1011.30 1011.48 1011.67 1011.86 1012.05 1012.24 1012.43 1012.64 1012.85 1013.07 1013.29 1013.49 1013.68 1013.85 1013.99 1014.10 1014.18 1014.25 1014.32 1014.39 1014.46 1014.56 1014.67 1014.78 1014.89 1014.98 1015.02 1015.00 1014.91 1014.74
1008.39 1008.85 1009.25 1009.59 1009.86 1010.08 1010.25 1010.39 1010.52 1010.66 1010.80 1010.96 1011.13 1011.30 1011.48 1011.66 1011.83 1012.00 1012.17 1012.35 1012.52 1012.71 1012.90 1013.09 1013.28 1013.46 1013.63 1013.77 1013.89 1013.98 1014.06 1014.11 1014.16 1014.21 1014.26 1014.31 1014.36 1014.40 1014.42 1014.42 1014.36 1014.26 1014.09
1008.96 1009.34 1009.67 1009.95 1010.18 1010.36 1010.50 1010.63 1010.75 1010.87 1011.01 1011.16 1011.32 1011.49 1011.66 1011.83 1011.98 1012.13 1012.27 1012.40 1012.53 1012.67 1012.81 1012.95 1013.10 1013.24 1013.38 1013.51 1013.62 1013.70 1013.77 1013.82 1013.85 1013.86 1013.86 1013.86 1013.85 1013.83 1013.79 1013.73 1013.64 1013.52 1013.36
1009.71 1009.98 1010.22 1010.43 1010.59 1010.72 1010.83 1010.93 1011.04 1011.15 1011.29 1011.43 1011.60 1011.76 1011.92 1012.07 1012.20 1012.31 1012.41 1012.48 1012.55 1012.61 1012.68 1012.75 1012.83 1012.91 1013.00 1013.09 1013.17 1013.23 1013.28 1013.31 1013.32 1013.31 1013.29 1013.24 1013.19 1013.12 1013.04 1012.95 1012.84 1012.72 1012.56
1010.51 1010.66 1010.79 1010.90 1010.98 1011.06 1011.12 1011.19 1011.28 1011.39 1011.52 1011.66 1011.82 1011.98 1012.13 1012.26 1012.36 1012.42 1012.46 1012.47 1012.46 1012.43 1012.41 1012.39 1012.38 1012.39 1012.41 1012.44 1012.48 1012.52 1012.54 1012.56 1012.56 1012.54 1012.50 1012.44 1012.37 1012.29 1012.20 1012.10 1012.00 1011.88 1011.75
1011.25 1011.27 1011.28 1011.28 1011.28 1011.28 1011.30 1011.34 1011.40 1011.50 1011.62 1011.76 1011.91 1012.05 1012.18 1012.28 1012.34 1012.36 1012.34 1012.28 1012.18 1012.08 1011.96 1011.85 1011.75 1011.68 1011.63 1011.60 1011.59 1011.59 1011.60 1011.60 1011.60 1011.58 1011.55 1011.51 1011.46 1011.39 1011.32 1011.25 1011.17 1011.09 1010.99
1011.86 1011.75 1011.64 1011.54 1011.45 1011.38 1011.35 1011.35 1011.39 1011.46 1011.57 1011.70 1011.83 1011.95 1012.05 1012.12 1012.14 1012.11 1012.02 1011.90 1011.74 1011.55 1011.35 1011.17 1010.99 1010.85 1010.73 1010.65 1010.60 1010.58 1010.57 1010.57 1010.58 1010.58 1010.58 1010.57 1010.55 1010.53 1010.50 1010.47 1010.43 1010.39 1010.33
1012.34 1012.11 1011.89 1011.70 1011.53 1011.40 1011.32 1011.28 1011.30 1011.35 1011.43 1011.54 1011.64 1011.73 1011.80 1011.82 1011.79 1011.71 1011.58 1011.40 1011.18 1010.94 1010.69 1010.44 1010.22 1010.02 1009.87 1009.75 1009.68 1009.63 1009.62 1009.63 1009.65 1009.68 1009.71 1009.75 1009.78 1009.80 1009.82 1009.84 1009.85 1009.85 1009.82
1012.75 1012.43 1012.12 1011.85 1011.63 1011.45 1011.33 1011.27 1011.25 1011.28 1011.33 1011.40 1011.46 1011.51 1011.53 1011.50 1011.42 1011.30 1011.12 1010.90 1010.64 1010.37 1010.09 1009.82 1009.57 1009.36 1009.18 1009.06 1008.97 1008.92 1008.91 1008.93 1008.97 1009.02 1009.09 1009.16 1009.23 1009.29 1009.36 1009.41 1009.45 1009.47 1009.46
1013.20 1012.81 1012.45 1012.13 1011.87 1011.67 1011.53 1011.44 1011.40 1011.39 1011.41 1011.43 1011.45 1011.44 1011.40 1011.31 1011.19 1011.01 1010.80 1010.55 1010.27 1009.99 1009.70 1009.43 1009.19 1008.98 1008.81 1008.68 1008.59 1008.55 1008.54 1008.57 1008.62 1008.69 1008.77 1008.85 1008.94 1009.03 1009.10 1009.17 1009.21 1009.22 1009.20
1013.78 1013.36 1012.98 1012.65 1012.38 1012.17 1012.02 1011.91 1011.85 1011.82 1011.80 1011.77 1011.73 1011.65 1011.55 1011.40 1011.22 1010.99 1010.74 1010.47 1010.18 1009.90 1009.62 1009.37 1009.14 1008.95 1008.79 1008.67 1008.60 1008.55 1008.55 1008.57 1008.61 1008.67 1008.74 1008.82 1008.90 1008.97 1009.03 1009.06 1009.08 1009.06 1008.99
1014.58 1014.17 1013.79 1013.47 1013.21 1013.01 1012.86 1012.76 1012.68 1012.62 1012.55 1012.47 1012.37 1012.23 1012.05 1011.84 1011.59 1011.32 1011.03 1010.74 1010.44 1010.15 1009.89 1009.65 1009.44 1009.26 1009.11 1009.01 1008.93 1008.88 1008.86 1008.86 1008.87 1008.90 1008.94 1008.97 1009.00 1009.03 1009.03 1009.01 1008.96 1008.87 1008.73
1015.58 1015.20 1014.86 1014.57 1014.33 1014.15 1014.01 1013.90 1013.81 1013.73 1013.62 1013.50 1013.33 1013.13 1012.89 1012.61 1012.31 1011.98 1011.65 1011.33 1011.01 1010.71 1010.45 1010.21 1010.00 1009.82 1009.68 1009.56 1009.47 1009.40 1009.34 1009.30 1009.27 1009.24 1009.22 1009.19 1009.15 1009.10 1009.03 1008.93 1008.79 1008.62 1008.39
1016.72 1016.38 1016.08 1015.82 1015.62 1015.46 1015.33 1015.23 1015.13 1015.02 1014.89 1014.72 1014.51 1014.25 1013.95 1013.62 1013.26 1012.89 1012.52 1012.15 1011.81 1011.48 1011.19 1010.94 1010.71 1010.51 1010.34 1010.20 1010.07 1009.96 1009.86 1009.76 1009.67 1009.57 1009.47 1009.36 1009.24 1009.11 1008.94 1008.75 1008.53 1008.26 1007.95
1017.86 1017.57 1017.31 1017.09 1016.91 1016.77 1016.65 1016.54 1016.44 1016.32 1016.17 1015.97 1015.73 1015.44 1015.10 1014.73 1014.33 1013.92 1013.50 1013.09 1012.70 1012.34 1012.01 1011.71 1011.44 1011.21 1010.99 1010.80 1010.62 1010.45 1010.28 1010.12 1009.96 1009.79 1009.62 1009.43 1009.23 1009.01 1008.76 1008.49 1008.18 1007.84 1007.47
Thickness
5739 5738 5738 5738 5738 5738 5736 5737 5736 5735 5734 5733 5733 5732 5731 5730 5728 5726 5727 5725 5723 5723 5722 5720 5718 5717 5718 5718 5716 5715 5713 5711 5707 5711 5713 5711 5705 5703 5703 5701 5700 5700 5701
5741 5739 5739 5738 5738 5737 5737 5737 5736 5734 5734 5733 5733 5732 5730 5729 5727 5725 5724 5724 5722 5720 5719 5717 5716 5715 5712 5711 5711 5710 5709 5706 5703 5701 5705 5705 5701 5699 5697 5696 5698 5699 5698
5744 5741 5739 5738 5738 5737 5737 5736 5736 5735 5734 5733 5732 5730 5729 5728 5726 5725 5723 5722 5720 5718 5717 5715 5713 5711 5707 5707 5704 5705 5703 5702 5699 5698 5698 5699 5698 5697 5693 5692 5693 5691 5692
5746 5744 5741 5739 5738 5737 5736 5736 5735 5735 5733 5732 5731 5729 5728 5726 5725 5723 5720 5718 5716 5715 5713 5711 5709 5707 5704 5702 5700 5698 5697 5695 5694 5692 5692 5693 5692 5692 5688 5687 5687 5688 5687
5746 5744 5742 5740 5739 5737 5736 5734 5733 5732 5731 5729 5728 5727 5725 5724 5722 5720 5717 5715 5712 5710 5709 5707 5706 5703 5701 5698 5697 5695 5692 5689 5688 5687 5686 5686 5686 5683 5681 5682 5681 5681 5683
5744 5743 5741 5739 5737 5736 5734 5732 5731 5729 5728 5726 5725 5724 5722 5722 5719 5714 5712 5712 5709 5706 5704 5703 5701 5698 5694 5690 5688 5686 5683 5682 5681 5680 5679 5678 5677 5677 5675 5674 5672 5672 5671
5741 5740 5739 5737 5734 5733 5732 5730 5727 5726 5725 5723 5722 5720 5718 5716 5712 5708 5704 5704 5704 5702 5700 5697 5696 5696 5690 5688 5683 5677 5675 5673 5671 5671 5671 5671 5670 5669 5665 5664 5662 5661 5662
5738 5736 5735 5733 5732 5730 5729 5727 5725 5723 5721 5719 5717 5716 5713 5711 5705 5701 5698 5697 5698 5696 5694 5690 5687 5685 5684 5680 5677 5675 5672 5670 5666 5662 5663 5663 5662 5659 5656 5653 5651 5651 5653
5734 5732 5731 5729 5727 5726 5724 5723 5721 5718 5716 5714 5712 5710 5707 5704 5698 5694 5690 5691 5690 5689 5687 5684 5681 5677 5673 5668 5665 5665 5664 5662 5659 5656 5653 5651 5648 5646 5643 5641 5642 5641 5644
5729 5726 5725 5723 5721 5719 5718 5716 5715 5712 5710 5708 5705 5703 5700 5696 5691 5686 5682 5684 5682 5681 5679 5675 5670 5667 5663 5658 5655 5654 5652 5651 5649 5646 5643 5641 5639 5637 5633 5631 5631 5630 5632
5722 5720 5717 5716 5714 5712 5709 5707 5706 5704 5701 5698 5695 5692 5689 5685 5682 5677 5673 5674 5674 5672 5669 5666 5663 5655 5650 5646 5643 5642 5641 5638 5635 5633 5633 5632 5630 5629 5627 5625 5623 5621 5621
5713 5710 5708 5706 5705 5703 5700 5697 5696 5694 5691 5687 5683 5680 5678 5675 5671 5667 5663 5660 5660 5658 5657 5654 5650 5644 5639 5634 5632 5630 5626 5622 5623 5622 5621 5621 5620 5620 5619 5616 5614 5611 5609
5702 5700 5698 5696 5694 5693 5691 5689 5687 5684 5682 5678 5674 5671 5668 5666 5662 5657 5653 5649 5646 5644 5643 5638 5634 5630 5627 5624 5620 5617 5613 5613 5613 5611 5610 5611 5611 5610 5607 5605 5603 5601 5600
5691 5690 5688 5686 5684 5682 5681 5680 5677 5675 5672 5668 5665 5662 5659 5657 5653 5649 5644 5640 5635 5632 5630 5625 5620 5617 5614 5612 5609 5606 5604 5604 5602 5599 5599 5599 5598 5596 5595 5594 5593 5591 5590
5680 5678 5677 5675 5673 5670 5667 5663 5662 5658 5656 5654 5654 5652 5648 5645 5637 5631 5630 5629 5626 5622 5616 5615 5613 5610 5607 5604 5601 5598 5594 5591 5589 5588 5586 5585 5584 5582 5581 5579 5577 5576 5576
5668 5667 5667 5665 5662 5660 5656 5651 5642 5642 5638 5636 5633 5632 5631 5625 5620 5617 5613 5610 5606 5602 5601 5604 5602 5599 5596 5593 5590 5587 5583 5581 5578 5576 5573 5572 5571 5569 5567 5566 5564 5562 5562
5656 5655 5656 5654 5652 5650 5647 5643 5638 5631 5625 5623 5620 5617 5613 5609 5605 5602 5598 5595 5591 5588 5591 5594 5592 5589 5586 5583 5579 5576 5573 5569 5565 5563 5560 5558 5557 5555 5553 5552 5551 5549 5550
5644 5641 5642 5641 5639 5637 5635 5633 5630 5627 5623 5619 5610 5604 5600 5596 5592 5587 5584 5581 5585 5581 5582 5581 5579 5576 5572 5569 5566 5562 5559 5555 5552 5549 5547 5545 5543 5542 5540 5539 5539 5539 5538
5632 5630 5628 5627 5627 5625 5623 5621 5619 5615 5612 5609 5606 5597 5588 5584 5578 5575 5571 5574 5576 5575 5572 5568 5564 5561 5558 5554 5552 5548 5545 5542 5539 5536 5535 5533 5531 5530 5529 5528 5528 5527 5525
5616 5612 5614 5615 5615 5612 5610 5607 5604 5601 5598 5594 5591 5586 5580 5576 5575 5570 5565 5564 5562 5559 5557 5553 5549 5546 5543 5540 5537 5535 5532 5530 5527 5525 5524 5523 5521 5519 5519 5518 5518 5518 5518
5608 5605 5601 5604 5602 5599 5596 5593 5590 5587 5583 5580 5576 5570 5558 5561 5561 5558 5554 5550 5546 5543 5539 5535 5532 5530 5528 5525 5524 5522 5519 5518 5516 5514 5513 5511 5510 5509 5509 5509 5509 5509 5510
5596 5595 5593 5591 5587 5584 5581 5579 5576 5572 5568 5564 5560 5556 5545 5546 5545 5542 5538 5534 5531 5527 5523 5520 5518 5515 5512 5510 5509 5507 5506 5505 5504 5503 5502 5502 5501 5500 5500 5500 5501 5501 5502
5583 5582 5579 5576 5573 5567 5567 5564 5560 5556 5552 5547 5543 5539 5535 5530 5527 5523 5519 5516 5513 5510 5508 5505 5502 5501 5499 5496 5494 5493 5492 5492 5491 5490 5490 5490 5490 5491 5492 5493 5494 5495 5496
5570 5568 5565 5562 5558 5555 5551 5547 5543 5539 5535 5530 5526 5522 5518 5513 5510 5507 5504 5501 5499 5497 5494 5492 5490 5488 5486 5484 5483 5482 5481 5479 5477 5478 5479 5480 5482 5484 5486 5487 5489 5491 5491
5555 5552 5549 5546 5542 5538 5534 5529 5525 5521 5517 5513 5509 5505 5502 5498 5495 5493 5490 5487 5485 5484 5482 5481 5480 5479 5478 5476 5475 5474 5471 5469 5468 5468 5469 5472 5476 5479 5481 5483 5485 5486 5487
5539 5536 5532 5529 5525 5520 5515 5511 5507 5502 5499 5496 5492 5488 5485 5483 5482 5479 5477 5474 5473 5472 5471 5472 5471 5470 5469 5469 5469 5466 5464 5464 5463 5463 5463 5468 5472 5475 5478 5480 5481 5482 5483